Location: Famechon
(49.7599°N, 2.0615°E)
Time: 23:06:00
(UTC+00:00)

FENGYUN 1C DEB - Visible Passes

Search period start: 21 February 2024 00:00
Search period end: 02 March 2024 00:00
Orbit: 636 x 853 km, 99.0° (Epoch: 21 February)

Date Brightness Start Highest point End Pass type
(mag) Time Alt. Az. Time Alt. Az. Time Alt. Az.
21 Feb ? 17:57:41 10° ESE 18:01:45 28° ENE 18:06:01 10° N visible
21 Feb ? 19:35:22 10° S 19:39:59 48° W 19:44:55 10° NNW visible
22 Feb ? 18:52:19 10° SSE 18:57:06 74° ENE 19:02:15 10° NNW visible
22 Feb ? 20:33:08 10° SW 20:36:15 17° W 20:39:31 10° NW visible
23 Feb ? 18:10:10 10° SE 18:14:32 34° ENE 18:19:11 10° N visible
23 Feb ? 19:48:28 10° SSW 19:52:58 38° W 19:57:46 10° NNW visible
24 Feb ? 19:05:08 10° SSE 19:10:00 88° WSW 19:15:14 10° NNW visible
24 Feb ? 20:46:56 10° WSW 20:49:21 13° W 20:51:50 10° WNW visible
25 Feb ? 18:22:43 10° SE 18:27:20 42° ENE 18:32:15 10° N visible
25 Feb ? 20:01:39 10° SSW 20:05:58 31° W 20:10:33 10° NNW visible
26 Feb ? 19:18:00 10° S 19:22:54 71° WSW 19:28:09 10° NNW visible
26 Feb ? 21:01:27 10° W 21:02:28 11° W 21:03:28 10° WNW visible
27 Feb ? 18:35:20 10° SE 18:40:09 53° ENE 18:45:18 10° N visible
27 Feb ? 20:14:56 10° SSW 20:18:59 25° W 20:23:16 10° NW visible
28 Feb ? 19:30:57 10° S 19:35:49 56° W 19:41:03 10° NNW visible
29 Feb ? 18:48:00 10° SSE 18:52:59 67° ENE 18:58:17 10° N visible
29 Feb ? 20:28:19 10° SW 20:32:00 20° W 20:35:52 10° NW visible
01 Mar ? 18:05:58 10° ESE 18:10:27 32° ENE 18:15:08 10° N visible
01 Mar ? 19:43:57 10° S 19:48:45 45° W 19:53:52 10° NNW visible
